This demonstration page uses our WeatherBlox Daily Observations layout. Learn more.

Left ArrowRight Arrow

36.17497, -115.13722

Hourly Observations for September 22, 2017

Temp ( °F °C ) Dew Point ( °F °C ) Humidity (%) Winds ( mph kmh ) Pressure ( in mb ) Visibility ( mi km ) Precip ( " mm )
12:53 am 00:53 Clear 64 17.8 31 -0.6 29 29 NW 17 28 29.74 1007 10 16 0.00 0.00
1:53 am 01:53 Clear 62 16.7 31 -0.6 31 31 NW 18 30 29.75 1007 10 16 0.00 0.00
2:53 am 02:53 Clear 62 16.7 31 -0.6 31 31 NNW 8 13 29.75 1008 10 16 0.00 0.00
3:53 am 03:53 Clear 59 15 32 0 36 36 N 12 19 29.77 1008 10 16 0.00 0.00
4:53 am 04:53 Clear 58 14.4 32 0 38 38 N 13 20 29.78 1008 10 16 0.00 0.00
5:53 am 05:53 Clear 57 13.9 31 -0.6 37 37 NNW 12 19 29.78 1009 10 16 0.00 0.00
6:53 am 06:53 Sunny 59 15 30 -1.1 33 33 NW 13 20 29.80 1009 10 16 0.00 0.00
7:53 am 07:53 Sunny 60 15.6 32 0 35 35 NNW 14 22 29.82 1010 10 16 0.00 0.00
8:53 am 08:53 Sunny 62 16.7 31 -0.6 31 31 NNW 17 28 29.83 1010 10 16 0.00 0.00
9:53 am 09:53 Sunny 67 19.4 29 -1.7 24 24 N 14 22 29.83 1010 10 16 0.00 0.00
10:53 am 10:53 Sunny 68 20 27 -2.8 21 21 N 9 15 29.83 1010 10 16 0.00 0.00
11:53 am 11:53 Sunny 70 21.1 23 -5 17 17 VRB 5 7 29.82 1010 10 16 0.00 0.00
12:53 pm 12:53 Sunny 72 22.2 23 -5 16 16 undefined N/A 29.80 1009 10 16 0.00 0.00
1:53 pm 13:53 Sunny 73 22.8 23 -5 15 15 NE 6 9 29.79 1009 10 16 0.00 0.00
2:53 pm 14:53 Sunny 72 22.2 23 -5 16 16 S 8 13 29.78 1008 10 16 0.00 0.00
3:53 pm 15:53 Sunny 74 23.3 23 -5 15 15 VRB 5 7 29.76 1008 10 16 0.00 0.00
4:53 pm 16:53 Sunny 75 23.9 23 -5 14 14 N 10 17 29.75 1007 10 16 0.00 0.00
5:53 pm 17:53 Sunny 74 23.3 23 -5 15 15 N 5 7 29.75 1007 10 16 0.00 0.00
6:53 pm 18:53 Clear 72 22.2 23 -5 16 16 NNW 6 9 29.75 1008 10 16 0.00 0.00
7:53 pm 19:53 Clear 70 21.1 22 -5.6 16 16 N 6 9 29.76 1008 10 16 0.00 0.00
8:53 pm 20:53 Clear 69 20.6 21 -6.1 16 16 NNW 9 15 29.76 1008 10 16 0.00 0.00
9:53 pm 21:53 Clear 67 19.4 19 -7.2 16 16 N 9 15 29.76 1008 10 16 0.00 0.00
10:53 pm 22:53 Clear 65 18.3 18 -7.8 16 16 N 8 13 29.76 1008 10 16 0.00 0.00
11:53 pm 23:53 Clear 66 18.9 22 -5.6 19 19 NNW 13 20 29.76 1008 10 16 0.00 0.00

Powered by AerisWeather